Flag for India Weather past 2 weeks in Kannauj, Uttar Pradesh, India

Now
97 °F

Haze.


Feels Like: 96 °F
Forecast: 80 / 109 °F
Wind: 2 mph from North

Location: Lucknow / Amausi

Current Time: May 5, 2015 at 10:44:52 AM

Latest Report: May 5, 2015 at 9:30 AM


Visibility: 3 mi

Pressure: 29.74 "Hg

Humidity: 28%

Dew point: 59 °F

Location of KannaujLocation

Historic Weather in Kannauj — Graph

°F

Kannauj temperature yesterday

Maximum temperature yesterday: 106 °F (at 12:30 PM)
Minimum temperature yesterday: 72 °F (at 5:00 AM)
Average temperature yesterday: 92 °F

Past Weeks' High & Low Weather Summary

 TemperatureHumidityPressure
High108 °F (Apr 21, 2:30 PM)100% (Apr 28, 8:00 AM)29.92 "Hg (Apr 28, 8:00 AM)
Low68 °F (Apr 28, 8:00 AM)13% (Apr 22, 2:00 PM)29.56 "Hg (Apr 22, 3:00 AM)
Average88 °F49%29.72 "Hg
* Reported Apr 20 8:30 AM — May 5 8:30 AM, Kannauj, Weather by CustomWeather, © 2015

Note: Actual official high and low records may vary slightly from our data, if they occured in-between our weather recording intervals... More about our weather records

Advertising

Kannauj weather history for previous 24 hours

 ConditionsComfort  
Time TempWeatherWind HumidityBarometerVisibility
8:30 AM
Tue, May 5
90 °FHaze.No wind36%29.74 "Hg2 mi
8:00 AM84 °FHaze.No wind43%29.74 "Hg2 mi
7:30 AM81 °FHaze.No wind51%29.74 "Hg2 mi
7:00 AM77 °FHaze.No wind54%29.74 "Hg2 mi
6:00 AM73 °FHaze.No wind57%29.71 "Hg2 mi
5:30 AM73 °FHaze.No wind57%29.71 "Hg2 mi
5:00 AM75 °FHaze.No wind54%29.71 "Hg2 mi
4:00 AM75 °FHaze.No wind57%29.71 "Hg2 mi
3:00 AM75 °FHaze.No wind57%29.71 "Hg2 mi
2:00 AM77 °FHaze.No wind54%29.71 "Hg2 mi
1:00 AM77 °FHaze.No wind54%29.71 "Hg2 mi
12:00 AM79 °FHaze.No wind51%29.71 "Hg2 mi
11:00 PM
Mon, May 4
84 °FHaze.2 mph40%29.71 "Hg2 mi
10:00 PM84 °FHaze.2 mph40%29.71 "Hg2 mi
9:00 PM86 °FHaze.2 mph35%29.71 "Hg2 mi
8:30 PM86 °FHaze.2 mph33%29.71 "Hg2 mi
8:00 PM91 °FHaze.2 mph28%29.68 "Hg2 mi
7:30 PM95 °FHaze.2 mph25%29.68 "Hg2 mi
6:30 PM99 °FDuststorm.No wind22%29.68 "Hg2 mi
5:30 PM102 °FDuststorm.3 mph18%29.68 "Hg2 mi
5:00 PM104 °FLow level haze.8 mph16%29.68 "Hg2 mi
4:30 PM106 °FLow level haze.10 mph14%29.68 "Hg3 mi
4:00 PM106 °FDuststorm.7 mph15%29.68 "Hg3 mi
3:30 PM106 °FDuststorm.7 mph14%29.68 "Hg3 mi
3:00 PM106 °FDuststorm.8 mph15%29.71 "Hg3 mi
2:30 PM104 °FDuststorm.9 mph16%29.71 "Hg3 mi
2:00 PM106 °FDuststorm.7 mph15%29.74 "Hg3 mi
1:30 PM106 °FDuststorm.6 mph14%29.74 "Hg3 mi
1:00 PM106 °FDuststorm.7 mph14%29.74 "Hg3 mi
12:30 PM106 °FDuststorm.5 mph14%29.77 "Hg3 mi
12:00 PM104 °FDuststorm.3 mph16%29.77 "Hg3 mi
11:30 AM104 °FDuststorm.3 mph19%29.80 "Hg3 mi
11:00 AM102 °FHaze.5 mph23%29.80 "Hg3 mi
10:30 AM102 °FHaze.6 mph23%29.80 "Hg3 mi
10:00 AM100 °FHaze.3 mph24%29.80 "Hg3 mi
Weather by CustomWeather, © 2015

See weather overviewHow to use our weather pages